Flag for Argentina Weather past 2 weeks in Jujuy, Jujuy, Argentina

Now
61 °F

Sunny.


Feels Like: 61 °F
Forecast: 52 / 85 °F
Wind: 12 mph from Northwest

Location: Jujuy Aerodrome

Current Time: Aug 23, 2014 at 9:07:30 AM

Latest Report: Aug 23, 2014 at 8:00 AM


Visibility: 10 mi

Pressure: 29.77 "Hg

Humidity: 59%

Dew point: 46 °F

Location of JujuyLocation

Historic Weather in Jujuy — Graph

°F

Jujuy temperature yesterday

Maximum temperature yesterday: 91 °F (at 3:00 PM)
Minimum temperature yesterday: 59 °F (at 5:00 AM)
Average temperature yesterday: 74 °F

Past Weeks' High & Low Weather Summary

 TemperatureHumidityPressure
High91 °F (Aug 22, 3:00 PM)87% (Aug 14, 5:00 AM)30.54 "Hg (Aug 14, 5:00 AM)
Low39 °F (Aug 14, 5:00 AM)18% (Aug 10, 3:00 PM)29.71 "Hg (Aug 22, 4:00 PM)
Average63 °F53%30.08 "Hg
* Reported Aug 8 8:00 AM — Aug 23 8:00 AM, Jujuy, Weather by CustomWeather, © 2014

Note: Actual official high and low records may vary slightly from our data, if they occured in-between our weather recording intervals... More about our weather records

Advertising

Jujuy weather history for previous 24 hours

 ConditionsComfort  
Time TempWeatherWind HumidityBarometerVisibility
8:00 AM
Aug 23
61 °FSunny.12 mph59%29.77 "Hg10 mi
7:00 AM61 °FSunny.10 mph59%29.74 "Hg10 mi
6:00 AM59 °FClear.9 mph63%29.74 "Hg10 mi
5:00 AM61 °FClear.10 mph55%29.74 "Hg10 mi
4:00 AM61 °FClear.6 mph59%29.74 "Hg10 mi
3:00 AM64 °FClear.8 mph52%29.77 "Hg10 mi
2:00 AM64 °FClear.6 mph56%29.77 "Hg10 mi
1:00 AM66 °FClear.7 mph52%29.80 "Hg10 mi
12:00 AM64 °FClear.6 mph60%29.80 "Hg10 mi
11:00 PM
Aug 22
70 °FClear.No wind53%29.80 "Hg10 mi
10:00 PM75 °FClear.6 mph44%29.80 "Hg10 mi
9:00 PM79 °FClear.5 mph32%29.77 "Hg10 mi
8:00 PM79 °FClear.6 mph32%29.74 "Hg10 mi
7:00 PM82 °FClear.9 mph32%29.74 "Hg10 mi
6:00 PM88 °FSunny.5 mph25%29.71 "Hg10 mi
5:00 PM90 °FSunny.9 mph24%29.71 "Hg10 mi
4:00 PM91 °FSunny.7 mph24%29.71 "Hg10 mi
3:00 PM91 °FSunny.3 mph21%29.74 "Hg10 mi
2:00 PM88 °FSunny.3 mph25%29.80 "Hg10 mi
1:00 PM86 °FSunny.5 mph29%29.83 "Hg10 mi
12:00 PM82 °FSunny.No wind35%29.86 "Hg10 mi
11:00 AM81 °FSunny.No wind34%29.89 "Hg10 mi
10:00 AM75 °FSunny.6 mph36%29.92 "Hg10 mi
9:00 AM64 °FSunny.9 mph49%29.92 "Hg10 mi
Weather by CustomWeather, © 2014

See weather overviewHow to use our weather pages